Location: Caltech
(34.1382°N, 118.1253°W)
Time: 22:20:52
(UTC-07:00)

Courier 1B - Visible Passes

Search period start: 25 September 2016 00:00
Search period end: 05 October 2016 00:00
Orbit: 963 x 1209 km, 28.3° (Epoch: 25 September)

Date Brightness Start Highest point End Pass type
(mag) Time Alt. Az. Time Alt. Az. Time Alt. Az.
25 Sep 8.9 19:02:18 10° W 19:09:21 41° SSW 19:16:35 10° SE visible
25 Sep 9.6 20:57:46 10° WSW 21:03:00 19° SSW 21:05:25 17° S visible
26 Sep 9.5 20:03:17 10° WSW 20:09:16 25° SSW 20:15:13 10° SSE visible
27 Sep 9.3 19:09:05 10° W 19:15:30 30° SSW 19:22:06 10° SE visible
27 Sep 10.1 21:07:13 10° SW 21:09:01 11° SSW 21:10:51 10° SSW visible
28 Sep 10.0 20:11:12 10° WSW 20:15:19 15° SSW 20:19:30 10° S visible
29 Sep 9.9 19:16:26 10° WSW 19:21:36 20° SSW 19:26:56 10° SSE visible
01 Oct 10.3 19:25:37 10° SW 19:27:41 11° SSW 19:29:46 10° SSW visible
